SQ6RR-12 Weather Reports


time (UTC)temp
C
wind
direction
speed
KPH
gust
KPH
rain 1hr
cm
rain 24hr
cm
rain mn
cm
humidity
%
barometer
mb
20260905100105 18 0 0.0 0.0 0.00 0.00 0.00 85 1018.9
20260905095652 18 0 0.0 0.0 0.00 0.00 0.00 78 1019.0
20260905095232 18 0 0.0 0.0 0.00 0.00 0.00 82 1018.9
20260905094742 18 0 0.0 0.0 0.00 0.00 0.00 84 1019.0
20260905094257 19 0 0.0 0.0 0.00 0.00 0.00 84 1019.0
20260905093827 20 0 0.0 0.0 0.00 0.00 0.00 84 1019.0
20260905093402 20 0 0.0 0.0 0.00 0.00 0.00 84 1019.1
20260905092937 20 0 0.0 0.0 0.00 0.00 0.00 83 1019.1
20260905092525 20 0 0.0 0.0 0.00 0.00 0.00 90 1019.0
20260905092045 18 0 0.0 0.0 0.00 0.00 0.00 88 1019.0
20260905091616 18 0 0.0 0.0 0.00 0.00 0.00 82 1019.1
20260905091142 20 0 0.0 0.0 0.00 0.00 0.00 78 1019.0
20260905090704 20 0 0.0 0.0 0.00 0.00 0.00 79 1019.0
20260905090234 20 0 0.0 0.0 0.00 0.00 0.00 78 1019.1
20260905085809 20 0 0.0 0.0 0.00 0.00 0.00 80 1019.0
20260905085349 19 0 0.0 0.0 0.00 0.00 0.00 81 1018.9
20260905084915 19 0 0.0 0.0 0.00 0.00 0.00 84 1018.9
20260905084432 18 0 0.0 0.0 0.00 0.00 0.00 90 1018.9
20260905084003 18 0 0.0 0.0 0.00 0.00 0.00 87 1019.0
20260905083525 17 0 0.0 0.0 0.00 0.00 0.00 96 1018.9
20260905083042 17 0 0.0 0.0 0.00 0.00 0.00 95 1018.8
20260905082610 17 0 0.0 0.0 0.00 0.00 0.00 97 1018.8
20260905082150 18 0 0.0 0.0 0.00 0.00 0.00 96 1018.7
20260905081712 18 0 0.0 0.0 0.00 0.00 0.00 95 1018.6
20260905081241 17 0 0.0 0.0 0.00 0.00 0.00 90 1018.5
20260905080804 17 0 0.0 0.0 0.00 0.00 0.00 84 1018.6
20260905080332 17 0 0.0 0.0 0.00 0.00 0.00 85 1018.5
20260905075848 17 0 0.0 0.0 0.00 0.00 0.00 90 1018.4
20260905075427 18 0 0.0 0.0 0.00 0.00 0.00 82 1018.4
20260905075008 18 0 0.0 0.0 0.00 0.00 0.00 85 1018.4
20260905074535 18 0 0.0 0.0 0.00 0.00 0.00 86 1018.5
20260905074105 18 0 0.0 0.0 0.00 0.00 0.00 84 1018.4
20260905073637 17 0 0.0 0.0 0.00 0.00 0.00 88 1018.5
20260905073219 17 0 0.0 0.0 0.00 0.00 0.00 91 1018.5
20260905072757 16 0 0.0 0.0 0.00 0.00 0.00 98 1018.4
20260905072346 16 0 0.0 0.0 0.00 0.00 0.00 99 1018.4
20260905071932 16 0 0.0 0.0 0.00 0.00 0.00 10 1018.4
20260905071500 16 0 0.0 0.0 0.00 0.00 0.00 10 1018.2
20260905071017 17 0 0.0 0.0 0.00 0.00 0.00 10 1018.2
20260905070541 17 0 0.0 0.0 0.00 0.00 0.00 10 1018.1
20260905070111 17 0 0.0 0.0 0.00 0.00 0.00 10 1018.2
20260905065636 16 0 0.0 0.0 0.00 0.00 0.00 10 1018.1
20260905065150 16 0 0.0 0.0 0.00 0.00 0.00 10 1018.2
20260905064717 16 0 0.0 0.0 0.00 0.00 0.00 10 1018.2
20260905064227 16 0 0.0 0.0 0.00 0.00 0.00 10 1018.0
20260905063802 15 0 0.0 0.0 0.00 0.00 0.00 10 1018.1
20260905063331 15 0 0.0 0.0 0.00 0.00 0.00 10 1018.1
20260905062912 15 0 0.0 0.0 0.00 0.00 0.00 10 1018.1
20260905062505 15 0 0.0 0.0 0.00 0.00 0.00 10 1018.1
20260905062030 15 0 0.0 0.0 0.00 0.00 0.00 10 1018.0
20260905061545 15 0 0.0 0.0 0.00 0.00 0.00 10 1017.9
20260905061105 15 0 0.0 0.0 0.00 0.00 0.00 10 1017.9
20260905060645 15 0 0.0 0.0 0.00 0.00 0.00 10 1017.8
20260905060207 15 0 0.0 0.0 0.00 0.00 0.00 10 1017.8
20260905055737 15 0 0.0 0.0 0.00 0.00 0.00 10 1017.8
20260905055317 14 0 0.0 0.0 0.00 0.00 0.00 10 1017.8
20260905054848 13 0 0.0 0.0 0.00 0.00 0.00 10 1017.7
20260905054412 13 0 0.0 0.0 0.00 0.00 0.00 10 1017.6
20260905054000 13 0 0.0 0.0 0.00 0.00 0.00 10 1017.5
20260905053518 13 0 0.0 0.0 0.00 0.00 0.00 10 1017.5
20260905053047 13 0 0.0 0.0 0.00 0.00 0.00 10 1017.5
20260905052625 13 0 0.0 0.0 0.00 0.00 0.00 10 1017.4
20260905052157 13 0 0.0 0.0 0.00 0.00 0.00 10 1017.4
20260905051712 14 0 0.0 0.0 0.00 0.00 0.00 10 1017.4
20260905051239 13 0 0.0 0.0 0.00 0.00 0.00 10 1017.1
20260905050822 13 0 0.0 0.0 0.00 0.00 0.00 10 1017.1
20260905050402 13 0 0.0 0.0 0.00 0.00 0.00 10 1017.1
20260905045938 13 0 0.0 0.0 0.00 0.00 0.00 10 1017.1
20260905045454 12 0 0.0 0.0 0.00 0.00 0.00 10 1017.0
20260905045032 12 0 0.0 0.0 0.00 0.00 0.00 10 1017.1
20260905044618 12 0 0.0 0.0 0.00 0.00 0.00 10 1017.0
20260905044136 13 0 0.0 0.0 0.00 0.00 0.00 10 1017.0
20260905043716 13 0 0.0 0.0 0.00 0.00 0.00 10 1017.0
20260905043247 13 0 0.0 0.0 0.00 0.00 0.00 10 1016.9
20260905042822 12 0 0.0 0.0 0.00 0.00 0.00 10 1016.9
20260905042342 12 0 0.0 0.0 0.00 0.00 0.00 10 1016.7
20260905041925 13 0 0.0 0.0 0.00 0.00 0.00 10 1016.8
20260905041452 13 0 0.0 0.0 0.00 0.00 0.00 10 1016.7
20260905041012 13 0 0.0 0.0 0.00 0.00 0.00 10 1016.6
20260905040520 12 0 0.0 0.0 0.00 0.00 0.00 10 1016.6
20260905040040 12 0 0.0 0.0 0.00 0.00 0.00 10 1016.8
20260905035607 13 0 0.0 0.0 0.00 0.00 0.00 10 1016.6
20260905035146 13 0 0.0 0.0 0.00 0.00 0.00 10 1016.6
20260905034707 13 0 0.0 0.0 0.00 0.00 0.00 10 1016.5
20260905034233 12 0 0.0 0.0 0.00 0.00 0.00 10 1016.5
20260905033757 12 0 0.0 0.0 0.00 0.00 0.00 10 1016.4
20260905033331 13 0 0.0 0.0 0.00 0.00 0.00 10 1016.5
20260905032857 13 0 0.0 0.0 0.00 0.00 0.00 10 1016.3
20260905032427 13 0 0.0 0.0 0.00 0.00 0.00 10 1016.5
20260905031935 13 0 0.0 0.0 0.00 0.00 0.00 10 1016.6
20260905031442 13 0 0.0 0.0 0.00 0.00 0.00 10 1016.4
20260905031022 13 0 0.0 0.0 0.00 0.00 0.00 10 1016.3
20260905030552 13 0 0.0 0.0 0.00 0.00 0.00 10 1016.0
20260905030132 13 0 0.0 0.0 0.00 0.00 0.00 10 1015.5
20260905025703 13 0 0.0 0.0 0.00 0.00 0.00 10 1016.0
20260905025306 13 0 0.0 0.0 0.00 0.00 0.00 10 1016.0
20260905024826 13 0 0.0 0.0 0.00 0.00 0.00 10 1016.1
20260905024352 14 0 0.0 0.0 0.00 0.00 0.00 10 1016.0
20260905023932 13 0 0.0 0.0 0.00 0.00 0.00 10 1015.9
20260905023502 13 0 0.0 0.0 0.00 0.00 0.00 10 1015.2
20260905023055 13 0 0.0 0.0 0.00 0.00 0.00 10 1015.5
20260905022641 13 0 0.0 0.0 0.00 0.00 0.00 10 1015.7
20260905022212 13 0 0.0 0.0 0.00 0.00 0.00 10 1015.7
20260905021740 13 0 0.0 0.0 0.00 0.00 0.00 10 1015.6
20260905021307 13 0 0.0 0.0 0.00 0.00 0.00 10 1015.5
20260905020832 13 0 0.0 0.0 0.00 0.00 0.00 10 1015.1
20260905020402 13 0 0.0 0.0 0.00 0.00 0.00 10 1014.7
20260905015946 13 0 0.0 0.0 0.00 0.00 0.00 10 1015.1
20260905015517 15 0 0.0 0.0 0.00 0.00 0.00 10 1015.0
20260905015047 15 0 0.0 0.0 0.00 0.00 0.00 10 1015.1
20260905014552 15 0 0.0 0.0 0.00 0.00 0.00 10 1015.2
20260905014125 15 0 0.0 0.0 0.00 0.00 0.00 10 1015.1
20260905013707 15 0 0.0 0.0 0.00 0.00 0.00 10 1015.4
20260905013247 15 0 0.0 0.0 0.00 0.00 0.00 10 1015.1
20260905012812 16 0 0.0 0.0 0.00 0.00 0.00 10 1015.4
20260905012346 15 0 0.0 0.0 0.00 0.00 0.00 10 1015.1
20260905011922 15 0 0.0 0.0 0.00 0.00 0.00 10 1015.3
20260905011457 15 0 0.0 0.0 0.00 0.00 0.00 10 1015.1
20260905011037 14 0 0.0 0.0 0.00 0.00 0.00 10 1015.1
20260905010607 15 0 0.0 0.0 0.00 0.00 0.00 10 1015.5
20260905010147 14 0 0.0 0.0 0.00 0.00 0.00 10 1015.4
20260905005737 14 0 0.0 0.0 0.00 0.00 0.00 10 1015.1
20260905005306 14 0 0.0 0.0 0.00 0.00 0.00 10 1015.3
20260905004837 14 0 0.0 0.0 0.00 0.00 0.00 10 1015.2
20260905004402 15 0 0.0 0.0 0.00 0.00 0.00 10 1015.4
20260905003932 15 0 0.0 0.0 0.00 0.00 0.00 10 1015.4
20260905003447 15 0 0.0 0.0 0.00 0.00 0.00 10 1015.5
20260905003026 15 0 0.0 0.0 0.00 0.00 0.00 10 1015.6
20260905002552 16 0 0.0 0.0 0.00 0.00 0.00 10 1015.6
20260905002132 16 0 0.0 0.0 0.00 0.00 0.00 10 1015.5
20260905001721 16 0 0.0 0.0 0.00 0.00 0.00 10 1015.4
20260905001302 16 0 0.0 0.0 0.00 0.00 0.00 10 1015.6
20260905000827 16 0 0.0 0.0 0.00 0.00 0.00 10 1015.0
20260905000355 16 0 0.0 0.0 0.00 0.00 0.00 10 1015.0
20260904235922 16 0 0.0 0.0 0.00 0.00 0.00 10 1015.2
20260904235457 16 0 0.0 0.0 0.00 0.00 0.00 10 1015.4
20260904235026 15 0 0.0 0.0 0.00 0.00 0.00 10 1015.0
20260904234547 15 0 0.0 0.0 0.00 0.00 0.00 10 1014.6
20260904234117 15 0 0.0 0.0 0.00 0.00 0.00 10 1014.3
20260904233645 15 0 0.0 0.0 0.00 0.00 0.00 10 1014.1
20260904233215 15 0 0.0 0.0 0.00 0.00 0.00 10 1014.3
20260904232742 15 0 0.0 0.0 0.00 0.00 0.00 10 1014.3
20260904232313 15 0 0.0 0.0 0.00 0.00 0.00 10 1014.5
20260904231851 16 0 0.0 0.0 0.00 0.00 0.00 10 1014.3
20260904231427 16 0 0.0 0.0 0.00 0.00 0.00 10 1014.3
20260904230953 16 0 0.0 0.0 0.00 0.00 0.00 10 1014.6
20260904230527 16 0 0.0 0.0 0.00 0.00 0.00 10 1014.1
20260904230122 17 0 0.0 0.0 0.00 0.00 0.00 10 1013.9
20260904225702 16 0 0.0 0.0 0.00 0.00 0.00 10 1013.6
20260904225217 16 0 0.0 0.0 0.00 0.00 0.00 10 1013.5
20260904224737 16 0 0.0 0.0 0.00 0.00 0.00 10 1013.9
20260904224312 16 0 0.0 0.0 0.00 0.00 0.00 10 1014.0
20260904223827 16 0 0.0 0.0 0.00 0.00 0.00 10 1014.3
20260904223342 16 0 0.0 0.0 0.00 0.00 0.00 10 1014.0
20260904222927 16 0 0.0 0.0 0.00 0.00 0.00 10 1014.0
20260904222449 16 0 0.0 0.0 0.00 0.00 0.00 10 1014.1
20260904222032 17 0 0.0 0.0 0.00 0.00 0.00 10 1014.1
20260904221557 17 0 0.0 0.0 0.00 0.00 0.00 10 1013.9
20260904221112 17 0 0.0 0.0 0.00 0.00 0.00 10 1013.8
20260904220702 17 0 0.0 0.0 0.00 0.00 0.00 10 1014.0
20260904220227 18 0 0.0 0.0 0.00 0.00 0.00 10 1014.2
20260904215734 18 0 0.0 0.0 0.00 0.00 0.00 10 1013.7
20260904215316 18 0 0.0 0.0 0.00 0.00 0.00 10 1013.6
20260904214839 17 0 0.0 0.0 0.00 0.00 0.00 10 1013.6
20260904214406 18 0 0.0 0.0 0.00 0.00 0.00 10 1013.4
20260904213935 17 0 0.0 0.0 0.00 0.00 0.00 10 1013.6
20260904213504 17 0 0.0 0.0 0.00 0.00 0.00 10 1013.4
20260904213027 17 0 0.0 0.0 0.00 0.00 0.00 10 1013.5
20260904212552 17 0 0.0 0.0 0.00 0.00 0.00 10 1013.4
20260904212124 17 0 0.0 0.0 0.00 0.00 0.00 10 1013.7
20260904211717 17 0 0.0 0.0 0.00 0.00 0.00 10 1013.6
20260904211311 17 0 0.0 0.0 0.00 0.00 0.00 10 1013.4
20260904210847 17 0 0.0 0.0 0.00 0.00 0.00 10 1013.4
20260904210427 18 0 0.0 0.0 0.00 0.00 0.00 10 1013.3
20260904210012 17 0 0.0 0.0 0.00 0.00 0.00 10 1013.5
20260904205527 18 0 0.0 0.0 0.00 0.00 0.00 98 1013.3
20260904205106 18 0 0.0 0.0 0.00 0.00 0.00 96 1013.3
20260904204624 18 0 0.0 0.0 0.00 0.00 0.00 95 1013.4
20260904204152 18 0 0.0 0.0 0.00 0.00 0.00 94 1013.4
20260904203707 18 0 0.0 0.0 0.00 0.00 0.00 94 1013.4
20260904203240 19 0 0.0 0.0 0.00 0.00 0.00 93 1013.6
20260904202802 19 0 0.0 0.0 0.00 0.00 0.00 92 1013.5
20260904202341 19 0 0.0 0.0 0.00 0.00 0.00 91 1013.4
20260904201857 19 0 0.0 0.0 0.00 0.00 0.00 90 1013.6
20260904201436 19 0 0.0 0.0 0.00 0.00 0.00 91 1013.5
20260904201003 20 0 0.0 0.0 0.00 0.00 0.00 89 1013.6
20260904200552 20 0 0.0 0.0 0.00 0.00 0.00 88 1013.5
20260904200110 20 0 0.0 0.0 0.00 0.00 0.00 90 1013.4
20260904195646 20 0 0.0 0.0 0.00 0.00 0.00 90 1013.3
20260904195212 20 0 0.0 0.0 0.00 0.00 0.00 88 1013.6
20260904194737 20 0 0.0 0.0 0.00 0.00 0.00 89 1013.6
20260904194311 20 0 0.0 0.0 0.00 0.00 0.00 89 1013.6
20260904193839 20 0 0.0 0.0 0.00 0.00 0.00 89 1013.7
20260904193412 21 0 0.0 0.0 0.00 0.00 0.00 88 1013.5
20260904192937 21 0 0.0 0.0 0.00 0.00 0.00 89 1013.5
20260904192502 21 0 0.0 0.0 0.00 0.00 0.00 91 1013.1
20260904192019 21 0 0.0 0.0 0.00 0.00 0.00 91 1013.2
20260904191604 22 0 0.0 0.0 0.00 0.00 0.00 96 1012.9
20260904191121 22 0 0.0 0.0 0.00 0.00 0.00 97 1012.8
20260904190647 23 0 0.0 0.0 0.00 0.00 0.00 94 1012.6
20260904190220 24 0 0.0 0.0 0.00 0.00 0.00 92 1012.7
20260904185802 23 0 0.0 0.0 0.00 0.00 0.00 93 1011.6
20260904185337 23 0 0.0 0.0 0.00 0.00 0.00 97 1011.9
20260904184927 23 0 0.0 0.0 0.00 0.00 0.00 97 1011.9
20260904184447 23 0 0.0 0.0 0.00 0.00 0.00 95 1011.8
20260904184031 23 0 0.0 0.0 0.00 0.00 0.00 95 1011.7
20260904183616 23 0 0.0 0.0 0.00 0.00 0.00 96 1011.7
20260904183155 22 0 0.0 0.0 0.00 0.00 0.00 98 1011.6
20260904182735 22 0 0.0 0.0 0.00 0.00 0.00 98 1011.4
20260904182307 22 0 0.0 0.0 0.00 0.00 0.00 10 1011.4
20260904181835 22 0 0.0 0.0 0.00 0.00 0.00 10 1011.5
20260904181417 22 0 0.0 0.0 0.00 0.00 0.00 10 1011.4
20260904181003 22 0 0.0 0.0 0.00 0.00 0.00 10 1011.2
20260904180536 22 0 0.0 0.0 0.00 0.00 0.00 10 1011.2
20260904175632 22 0 0.0 0.0 0.00 0.00 0.00 10 1011.0
20260904175201 22 0 0.0 0.0 0.00 0.00 0.00 10 1011.0
20260904174720 22 0 0.0 0.0 0.00 0.00 0.00 10 1011.1
20260904174242 22 0 0.0 0.0 0.00 0.00 0.00 10 1011.1
20260904173812 22 0 0.0 0.0 0.00 0.00 0.00 10 1011.3
20260904173352 22 0 0.0 0.0 0.00 0.00 0.00 10 1011.5
20260904172907 22 0 0.0 0.0 0.00 0.00 0.00 10 1011.6
20260904172435 22 0 0.0 0.0 0.00 0.00 0.00 10 1011.6
20260904172021 22 0 0.0 0.0 0.00 0.00 0.00 10 1011.7
20260904171542 22 0 0.0 0.0 0.00 0.00 0.00 99 1011.7
20260904171114 22 0 0.0 0.0 0.00 0.00 0.00 10 1011.6
20260904170650 22 0 0.0 0.0 0.00 0.00 0.00 10 1011.6
20260904170228 23 0 0.0 0.0 0.00 0.00 0.00 98 1011.7
20260904165756 23 0 0.0 0.0 0.00 0.00 0.00 98 1011.6
20260904165321 23 0 0.0 0.0 0.00 0.00 0.00 98 1011.5
20260904164857 23 0 0.0 0.0 0.00 0.00 0.00 95 1011.6
20260904164420 23 0 0.0 0.0 0.00 0.00 0.00 98 1011.5
20260904164002 23 0 0.0 0.0 0.00 0.00 0.00 10 1011.6
20260904163551 23 0 0.0 0.0 0.00 0.00 0.00 10 1011.7
20260904163125 23 0 0.0 0.0 0.00 0.00 0.00 10 1011.7
20260904162652 23 0 0.0 0.0 0.00 0.00 0.00 10 1011.6
20260904162205 23 0 0.0 0.0 0.00 0.00 0.00 99 1011.6
20260904161749 23 0 0.0 0.0 0.00 0.00 0.00 99 1011.6
20260904161330 23 0 0.0 0.0 0.00 0.00 0.00 98 1011.8
20260904160856 23 0 0.0 0.0 0.00 0.00 0.00 10 1011.7
20260904160431 23 0 0.0 0.0 0.00 0.00 0.00 99 1011.8
20260904160001 23 0 0.0 0.0 0.00 0.00 0.00 97 1011.9
20260904155522 23 0 0.0 0.0 0.00 0.00 0.00 98 1011.9
20260904155109 23 0 0.0 0.0 0.00 0.00 0.00 99 1011.9
20260904154641 23 0 0.0 0.0 0.00 0.00 0.00 97 1011.7
20260904154213 23 0 0.0 0.0 0.00 0.00 0.00 98 1011.8
20260904153800 24 0 0.0 0.0 0.00 0.00 0.00 96 1011.8
20260904153322 23 0 0.0 0.0 0.00 0.00 0.00 10 1011.9
20260904152840 23 0 0.0 0.0 0.00 0.00 0.00 10 1011.9
20260904152422 23 0 0.0 0.0 0.00 0.00 0.00 10 1011.9
20260904151935 23 0 0.0 0.0 0.00 0.00 0.00 10 1011.9
20260904151505 23 0 0.0 0.0 0.00 0.00 0.00 97 1012.0
20260904151036 24 0 0.0 0.0 0.00 0.00 0.00 95 1011.9
20260904150615 24 0 0.0 0.0 0.00 0.00 0.00 96 1011.9
20260904150145 24 0 0.0 0.0 0.00 0.00 0.00 95 1012.0
20260904145715 25 0 0.0 0.0 0.00 0.00 0.00 93 1012.0
20260904145257 25 0 0.0 0.0 0.00 0.00 0.00 93 1012.0
20260904144841 25 0 0.0 0.0 0.00 0.00 0.00 92 1012.0
20260904144410 25 0 0.0 0.0 0.00 0.00 0.00 92 1012.3
20260904143934 25 0 0.0 0.0 0.00 0.00 0.00 93 1012.3
20260904143512 25 0 0.0 0.0 0.00 0.00 0.00 91 1012.5
20260904143049 25 0 0.0 0.0 0.00 0.00 0.00 88 1012.6
20260904142644 25 0 0.0 0.0 0.00 0.00 0.00 89 1012.6
20260904142222 26 0 0.0 0.0 0.00 0.00 0.00 87 1012.8
20260904141744 25 0 0.0 0.0 0.00 0.00 0.00 89 1012.8
20260904141327 25 0 0.0 0.0 0.00 0.00 0.00 90 1012.9
20260904140906 25 0 0.0 0.0 0.00 0.00 0.00 89 1012.9
20260904140447 25 0 0.0 0.0 0.00 0.00 0.00 88 1013.1
20260904140031 25 0 0.0 0.0 0.00 0.00 0.00 92 1013.1
20260904135607 25 0 0.0 0.0 0.00 0.00 0.00 92 1013.1
20260904135147 25 0 0.0 0.0 0.00 0.00 0.00 91 1013.1
20260904134705 25 0 0.0 0.0 0.00 0.00 0.00 90 1013.3
20260904134302 25 0 0.0 0.0 0.00 0.00 0.00 91 1013.3
20260904133836 25 0 0.0 0.0 0.00 0.00 0.00 96 1013.3
20260904133353 25 0 0.0 0.0 0.00 0.00 0.00 93 1013.5
20260904132937 24 0 0.0 0.0 0.00 0.00 0.00 96 1013.7
20260904132512 24 0 0.0 0.0 0.00 0.00 0.00 94 1013.4
20260904132032 24 0 0.0 0.0 0.00 0.00 0.00 98 1013.7
20260904131556 25 0 0.0 0.0 0.00 0.00 0.00 95 1013.9
20260904131128 25 0 0.0 0.0 0.00 0.00 0.00 92 1014.0
20260904130647 25 0 0.0 0.0 0.00 0.00 0.00 92 1013.9
20260904130223 25 0 0.0 0.0 0.00 0.00 0.00 94 1013.9
20260904125802 25 0 0.0 0.0 0.00 0.00 0.00 93 1013.9
20260904125331 25 0 0.0 0.0 0.00 0.00 0.00 92 1014.2
20260904124902 25 0 0.0 0.0 0.00 0.00 0.00 92 1014.2
20260904124432 25 0 0.0 0.0 0.00 0.00 0.00 95 1014.1
20260904124003 24 0 0.0 0.0 0.00 0.00 0.00 98 1014.2
20260904123527 24 0 0.0 0.0 0.00 0.00 0.00 97 1014.2
20260904123101 24 0 0.0 0.0 0.00 0.00 0.00 98 1014.4
20260904122622 24 0 0.0 0.0 0.00 0.00 0.00 98 1014.4
20260904122141 24 0 0.0 0.0 0.00 0.00 0.00 99 1014.6
20260904121722 24 0 0.0 0.0 0.00 0.00 0.00 98 1014.6
20260904121252 25 0 0.0 0.0 0.00 0.00 0.00 96 1014.6
20260904120822 25 0 0.0 0.0 0.00 0.00 0.00 93 1014.4
20260904120357 25 0 0.0 0.0 0.00 0.00 0.00 99 1014.6
20260904115935 24 0 0.0 0.0 0.00 0.00 0.00 10 1014.8
20260904115502 24 0 0.0 0.0 0.00 0.00 0.00 10 1014.6
20260904115026 23 0 0.0 0.0 0.00 0.00 0.00 10 1014.7
20260904114557 22 0 0.0 0.0 0.00 0.00 0.00 10 1015.0
20260904114127 23 0 0.0 0.0 0.00 0.00 0.00 10 1014.9
20260904113707 23 0 0.0 0.0 0.00 0.00 0.00 10 1014.9
20260904113237 23 0 0.0 0.0 0.00 0.00 0.00 10 1014.8
20260904112816 22 0 0.0 0.0 0.00 0.00 0.00 10 1015.1
20260904112401 21 0 0.0 0.0 0.00 0.00 0.00 10 1015.1
20260904111939 22 0 0.0 0.0 0.00 0.00 0.00 10 1015.3
20260904111457 22 0 0.0 0.0 0.00 0.00 0.00 10 1015.3
20260904111027 22 0 0.0 0.0 0.00 0.00 0.00 10 1015.5
20260904110559 22 0 0.0 0.0 0.00 0.00 0.00 10 1015.7
20260904110142 22 0 0.0 0.0 0.00 0.00 0.00 10 1015.6
20260904105710 22 0 0.0 0.0 0.00 0.00 0.00 10 1015.8
20260904105237 22 0 0.0 0.0 0.00 0.00 0.00 10 1015.6
20260904104817 22 0 0.0 0.0 0.00 0.00 0.00 10 1015.8
20260904104356 22 0 0.0 0.0 0.00 0.00 0.00 10 1015.6
20260904103930 21 0 0.0 0.0 0.00 0.00 0.00 10 1015.8
20260904103505 21 0 0.0 0.0 0.00 0.00 0.00 10 1016.0
20260904103057 20 0 0.0 0.0 0.00 0.00 0.00 10 1016.0
20260904102607 20 0 0.0 0.0 0.00 0.00 0.00 10 1016.1
20260904102132 20 0 0.0 0.0 0.00 0.00 0.00 10 1016.1
20260904101654 21 0 0.0 0.0 0.00 0.00 0.00 10 1016.1
20260904101242 20 0 0.0 0.0 0.00 0.00 0.00 10 1016.0
20260904100804 20 0 0.0 0.0 0.00 0.00 0.00 10 1016.1